+ View the NASA Portal
+ Center for Near-Earth Object Studies
IMPORTANT:
The SSD Announcement email list is now available. Major changes are coming in the near future, including possible hostname and/or URL changes. To be notified of such changes, subscribe to this email list.
Please visit
this page
for more details.
Don't show this message again
JPL Small-Body Database Browser
Search:
[
help
]
146195 (2000 TY52)
Classification:
Main-belt Asteroid
SPK-ID:
2146195
[
Ephemeris
|
Orbit Diagram
|
Orbital Elements
|
Mission Design
|
Physical Parameters
|
Discovery Circumstances
]
[ show orbit diagram ]
Orbital Elements at Epoch 2458600.5 (2019-Apr-27.0) TDB
Reference:
JPL 15
(heliocentric ecliptic J2000)
Element
Value
Uncertainty (1-sigma)
Units
e
.06227372458960678
6.3609e-08
a
2.846147966949571
2.2126e-08
au
q
2.668907732314484
1.8187e-07
au
i
1.623352842899448
6.6443e-06
deg
node
356.8141394003123
0.00012981
deg
peri
340.8538402061814
0.00013366
deg
M
351.5294623203237
3.045e-05
deg
t
p
2458641.766070590883
(2019-Jun-07.26607059)
0.00014831
TDB
period
1753.818467552746
4.80
2.0451e-05
5.599e-08
d
yr
n
.2052663982392311
2.3936e-09
deg/d
Q
3.023388201584658
2.3503e-08
au
Orbit Determination Parameters
# obs. used (total)
431
data-arc span
6965 days (19.07 yr)
first obs. used
2000-10-01
last obs. used
2019-10-27
planetary ephem.
DE431
SB-pert. ephem.
SB431-N16
condition code
0
norm. resid. RMS
.60299
source
ORB
producer
Otto Matic
solution date
2019-Nov-07 17:02:37
Additional Information
Earth MOID
= 1.65858 au
Jupiter MOID
= 2.22053 au
T_jup
= 3.304
[ show covariance matrix ]
[
Ephemeris
|
Orbit Diagram
|
Orbital Elements
|
Mission Design
|
Physical Parameters
|
Discovery Circumstances
]
Physical Parameter Table
Parameter
Symbol
Value
Units
Sigma
Reference
Notes
absolute magnitude
H
15.8
n/a
MPO453927
146195 (2000 TY52)
Discovered 2000-Oct-01 by LINEAR at Socorro
Reference:
20070106/Numbers.arc
Last Updated:
2007-01-09
Alternate Designations
2000 TY52
= 2005 UY316
[
Ephemeris
|
Orbit Diagram
|
Orbital Elements
|
Mission Design
|
Physical Parameters
|
Discovery Circumstances
]
2019-Dec-07 02:10 UT
(server date/time)
Site Manager:
Ryan S. Park
Webmaster
:
Alan B. Chamberlin